{"data":{"norad_id":62171,"intl_designator":"2024-225J","name":"STARLINK-32257","alt_names":[],"object_type":"PAYLOAD","status":"ACTIVE","operator":null,"country":"US","launch_date":"2024-11-30","launch_site_code":"AFWTR","launch_vehicle":null,"mission":null,"orbit_class":"UNKNOWN","rcs_meters":null,"size_class":null,"mass_kg":null,"dimensions":null,"purposes":["comms"],"wikipedia_slug":null,"has_3d_model":false,"image_url":null,"decayed_at":null,"tle_current":{"epoch":"2026-05-24T23:06:36.718272Z","epoch_age_seconds":72170,"freshness":"FRESH","line1":"1 62171U 24225J   26144.96292498  .00002810  00000+0  24313-3 0  9994","line2":"2 62171  70.0017 332.0004 0002602 262.7245  97.3619 14.98337636 81301","mean_motion":14.98337636,"eccentricity":0.0002602,"inclination_deg":70.0017,"raan_deg":332.0004,"arg_perigee_deg":262.7245,"mean_anomaly_deg":97.3619,"bstar":0.00024313,"rev_number":8130,"period_min":96.106509334189,"perigee_km":570.22384329863,"apogee_km":573.84071139056,"semimajor_km":6950.1692773446,"source":"CELESTRAK","updated_at":"2026-05-25T13:38:19.602076Z"}}}